Dothan, AL

11:20 PM CDT on June 25, 2017 (GMT -0500)
Dothan Regional

Weather History for KDHN - March, 2014

Change the Weather History Date:

Sunday, March 16, 2014

  Actual Average Record
Temperature  
Mean Temperature 60 °F 59 °F  
Max Temperature 63 °F 71 °F 87 °F (1945)
Min Temperature 56 °F 47 °F 28 °F (2017)
Degree Days  
Heating Degree Days 5 7  
Month to date heating degree days 166 129  
Since 1 July heating degree days 1831 1688  
Cooling Degree Days 0 1  
Month to date cooling degree days 1 15  
Year to date cooling degree days 10 25  
Growing Degree Days 10 (Base 50)    
Moisture  
Dew Point 59 °F    
Average Humidity 93    
Maximum Humidity 100    
Minimum Humidity 78    
Precipitation  
Precipitation 1.80 in 0.16 in 1.80 in (2014)
Month to date precipitation 2.21 2.64  
Year to date precipitation 9.94 12.04  
Sea Level Pressure  
Sea Level Pressure 29.78 in    
Wind  
Wind Speed 11 mph (South)    
Max Wind Speed 25 mph    
Max Gust Speed 36 mph    
Visibility 6 miles    
Events Rain , Thunderstorm    
T = Trace of Precipitation, MM = Missing Value Source: NWS Daily Summary

Daily Weather History Graph

Daily Weather History Graph

Search for Another Location

Airport or City:

Trip Planner

Search our weather history database for the weather conditions in past years. The results will help you decide how hot, cold, wet, or windy it might be!

Date:

Astronomy

Mar. 16, 2014 Rise Set
Actual Time 6:50 AM CDT 6:50 PM CDT
Civil Twilight 6:26 AM CDT 7:14 PM CDT
Nautical Twilight 5:58 AM CDT 7:43 PM CDT
Astronomical Twilight 5:29 AM CDT 8:11 PM CDT
Moon 7:04 PM CDT (3/16) 6:35 AM CDT (3/16)
Length of Visible Light 12h 48m
Length of Day
12h 00m
Full, 100% of the Moon is Illuminated
Mar 16
Full
Mar 16
Full
Mar 23
Last Quarter
Mar 30
New
Apr 7
First Quarter

Hourly Weather History & Observations

Time (CDT) Temp. Dew Point Humidity Pressure Visibility Wind Dir Wind Speed Gust Speed Precip Events Conditions
12:53 AM 60.1 °F 53.1 °F 78% 29.97 in 10.0 mi ESE 4.6 mph - N/A   Overcast
1:53 AM 59.0 °F 53.1 °F 81% 29.94 in 10.0 mi SSE 6.9 mph - N/A   Partly Cloudy
2:53 AM 57.9 °F 52.0 °F 81% 29.91 in 10.0 mi SE 5.8 mph - N/A   Clear
3:53 AM 57.9 °F 52.0 °F 81% 29.89 in 10.0 mi SSE 5.8 mph - N/A   Clear
4:53 AM 57.9 °F 52.0 °F 81% 29.83 in 10.0 mi SE 10.4 mph - N/A   Mostly Cloudy
5:53 AM 59.0 °F 53.1 °F 81% 29.82 in 10.0 mi SSE 11.5 mph - N/A   Overcast
6:53 AM 59.0 °F 54.0 °F 83% 29.79 in 10.0 mi SSE 13.8 mph - 0.00 in Rain Light Rain
7:53 AM 60.1 °F 57.0 °F 90% 29.77 in 10.0 mi SSE 21.9 mph 31.1 mph 0.00 in Rain Light Rain
8:43 AM 62.6 °F 57.2 °F 82% 29.80 in 10.0 mi South 17.3 mph - 0.00 in   Overcast
8:53 AM 62.1 °F 57.9 °F 86% 29.78 in 10.0 mi South 15.0 mph 24.2 mph 0.00 in Rain Light Rain
9:44 AM 62.6 °F 60.8 °F 94% 29.76 in 8.0 mi SSE 15.0 mph 21.9 mph 0.01 in Rain , Thunderstorm Light Rain
9:53 AM 62.1 °F 60.1 °F 93% 29.73 in 3.0 mi SSE 18.4 mph 24.2 mph 0.03 in Rain , Thunderstorm Light Rain
9:56 AM 62.6 °F 60.8 °F 94% 29.73 in 2.0 mi SSE 17.3 mph 24.2 mph 0.01 in Rain , Thunderstorm Rain
10:09 AM 62.6 °F 60.8 °F 94% 29.73 in 2.0 mi SSE 15.0 mph - 0.06 in Rain , Thunderstorm Heavy Thunderstorms and Rain
10:21 AM 62.6 °F 60.8 °F 94% 29.80 in 2.0 mi WNW 25.3 mph 35.7 mph 0.12 in Rain , Thunderstorm Thunderstorms and Rain
10:29 AM 62.6 °F 60.8 °F 94% 29.79 in 0.8 mi SW 23.0 mph 35.7 mph 0.43 in Rain , Thunderstorm Heavy Rain
10:38 AM 62.6 °F 60.8 °F 94% 29.78 in 1.5 mi SSW 24.2 mph 34.5 mph 0.63 in Rain , Thunderstorm Heavy Thunderstorms and Rain
10:45 AM 62.6 °F 60.8 °F 94% 29.78 in 1.5 mi SSW 16.1 mph 31.1 mph 0.73 in Rain , Thunderstorm Heavy Thunderstorms and Rain
10:51 AM 60.8 °F 60.8 °F 100% 29.79 in 2.0 mi SW 15.0 mph - 0.77 in Rain , Thunderstorm Heavy Thunderstorms and Rain
10:52 AM 61.0 °F 60.1 °F 97% 29.78 in 2.0 mi SW 13.8 mph - 0.77 in Rain , Thunderstorm Heavy Thunderstorms and Rain
11:08 AM 60.8 °F 60.8 °F 100% 29.78 in 3.0 mi SW 8.1 mph - 0.06 in Rain , Thunderstorm Rain
11:30 AM 60.8 °F 60.8 °F 100% 29.77 in 5.0 mi SW 8.1 mph - 0.10 in Rain , Thunderstorm Rain
11:40 AM 60.8 °F 60.8 °F 100% 29.78 in 5.0 mi SW 8.1 mph - 0.11 in Rain , Thunderstorm Light Rain
11:51 AM 60.8 °F 60.8 °F 100% 29.78 in 4.0 mi SSW 8.1 mph - 0.14 in Rain Rain
11:53 AM 61.0 °F 60.1 °F 97% 29.77 in 4.0 mi SSW 8.1 mph - 0.15 in Rain Rain
12:00 PM 62.6 °F 60.8 °F 94% 29.79 in 4.0 mi SSW 10.4 mph - 0.01 in Rain , Thunderstorm Rain
12:09 PM 62.6 °F 60.8 °F 94% 29.79 in 4.0 mi SSW 10.4 mph - 0.04 in Rain Rain
12:53 PM 62.1 °F 61.0 °F 96% 29.76 in 8.0 mi SSW 11.5 mph - 0.16 in Rain Light Rain
1:48 PM 62.6 °F 60.8 °F 94% 29.77 in 6.0 mi SW 9.2 mph - 0.05 in Rain , Thunderstorm Rain
1:53 PM 62.1 °F 61.0 °F 96% 29.75 in 4.0 mi SSW 6.9 mph - 0.07 in Rain , Thunderstorm Rain
2:13 PM 62.6 °F 60.8 °F 94% 29.73 in 3.0 mi South 5.8 mph - 0.07 in Rain , Thunderstorm Rain
2:41 PM 62.6 °F 60.8 °F 94% 29.73 in 2.5 mi South 9.2 mph - 0.18 in Rain Heavy Rain
2:49 PM 62.6 °F 60.8 °F 94% 29.71 in 4.0 mi SSE 9.2 mph - 0.21 in Rain Rain
2:53 PM 62.1 °F 61.0 °F 96% 29.68 in 4.0 mi SSE 10.4 mph - 0.22 in Rain Rain
3:14 PM 62.6 °F 60.8 °F 94% 29.69 in 10.0 mi SSE 9.2 mph - 0.01 in Rain Light Rain
3:53 PM 62.1 °F 61.0 °F 96% 29.71 in 10.0 mi South 8.1 mph - 0.01 in   Overcast
4:41 PM 62.6 °F 60.8 °F 94% 29.71 in 10.0 mi South 8.1 mph - N/A   Overcast
4:53 PM 62.1 °F 61.0 °F 96% 29.72 in 10.0 mi SSE 11.5 mph - N/A   Overcast
5:53 PM 62.1 °F 60.1 °F 93% 29.75 in 9.0 mi SSE 6.9 mph - 0.00 in Rain Light Rain
6:53 PM 60.1 °F 59.0 °F 96% 29.75 in 10.0 mi SSE 18.4 mph - 0.05 in Rain Light Rain
7:45 PM 60.8 °F 59.0 °F 94% 29.76 in 8.0 mi SE 12.7 mph - 0.06 in Rain Rain
7:53 PM 60.1 °F 59.0 °F 96% 29.75 in 7.0 mi SE 11.5 mph - 0.07 in Rain Rain
8:53 PM 60.1 °F 59.0 °F 96% 29.78 in 10.0 mi SSE 8.1 mph - 0.05 in Rain Light Rain
9:53 PM 60.1 °F 59.0 °F 96% 29.79 in 7.0 mi SSE 4.6 mph - 0.04 in Rain Light Rain
10:53 PM 60.1 °F 59.0 °F 96% 29.77 in 8.0 mi SE 9.2 mph - 0.05 in Rain Light Rain
11:45 PM 59.0 °F 57.2 °F 94% 29.76 in 8.0 mi SSE 17.3 mph - 0.09 in Rain Rain
11:53 PM 59.0 °F 57.9 °F 96% 29.74 in 7.0 mi SSE 19.6 mph - 0.10 in Rain Rain